TimeEST,TemperatureF,Dew PointF,Humidity,Sea Level PressureIn,VisibilityMPH,Wind Direction,Wind SpeedMPH,Gust SpeedMPH,PrecipitationIn,Events,Conditions,WindDirDegrees,DateUTC
12:54 AM,5.0,-13.0,43,30.31,10.0,NNW,9.2,20.7,N/A,,Clear,330,2013-01-25 05:54:00
1:54 AM,3.9,-13.0,46,30.32,10.0,WSW,6.9,-,N/A,,Clear,250,2013-01-25 06:54:00
2:54 AM,3.9,-13.0,46,30.33,10.0,Variable,4.6,-,N/A,,Clear,0,2013-01-25 07:54:00
3:54 AM,3.0,-11.9,50,30.32,10.0,West,4.6,-,N/A,,Clear,260,2013-01-25 08:54:00
4:54 AM,1.9,-11.9,52,30.32,10.0,WNW,8.1,-,N/A,,Clear,300,2013-01-25 09:54:00
5:54 AM,1.9,-11.9,52,30.34,10.0,NNW,8.1,-,N/A,,Clear,330,2013-01-25 10:54:00
6:54 AM,1.9,-11.9,52,30.34,10.0,Variable,5.8,-,N/A,,Clear,0,2013-01-25 11:54:00
7:54 AM,1.9,-11.9,52,30.36,10.0,North,5.8,-,N/A,,Clear,350,2013-01-25 12:54:00
8:54 AM,3.0,-11.9,50,30.36,10.0,NNW,9.2,-,N/A,,Clear,330,2013-01-25 13:54:00
9:54 AM,6.1,-11.9,44,30.34,10.0,NNW,11.5,-,N/A,,Clear,330,2013-01-25 14:54:00
10:54 AM,9.0,-11.0,40,30.32,10.0,Calm,Calm,-,N/A,,Clear,0,2013-01-25 15:54:00
11:54 AM,10.0,-9.9,40,30.29,10.0,West,8.1,-,N/A,,Clear,260,2013-01-25 16:54:00
12:54 PM,12.9,-11.9,32,30.25,10.0,WNW,6.9,-,N/A,,Clear,290,2013-01-25 17:54:00
2:54 PM,15.1,-11.9,29,30.20,10.0,WNW,5.8,-,N/A,,Clear,290,2013-01-25 19:54:00
3:54 PM,15.1,-13.0,28,30.19,10.0,WNW,4.6,-,N/A,,Partly Cloudy,300,2013-01-25 20:54:00
4:54 PM,15.1,-11.9,29,30.19,10.0,North,3.5,-,N/A,,Partly Cloudy,350,2013-01-25 21:54:00
5:54 PM,14.0,-9.9,34,30.16,10.0,Calm,Calm,-,N/A,,Mostly Cloudy,0,2013-01-25 22:54:00
6:54 PM,12.9,-7.1,41,30.15,10.0,Calm,Calm,-,N/A,,Overcast,0,2013-01-25 23:54:00
7:54 PM,12.9,-9.0,37,30.13,10.0,Calm,Calm,-,N/A,,Overcast,0,2013-01-26 00:54:00
8:54 PM,12.9,-6.0,43,30.12,10.0,Calm,Calm,-,N/A,,Overcast,0,2013-01-26 01:54:00
9:54 PM,12.9,-5.1,45,30.11,10.0,Calm,Calm,-,N/A,,Overcast,0,2013-01-26 02:54:00
10:54 PM,12.0,-0.0,59,30.10,7.0,NNW,3.5,-,0.00,Snow,Light Snow,340,2013-01-26 03:54:00
11:54 PM,10.9,3.9,73,30.09,4.0,Calm,Calm,-,0.00,Snow,Light Snow,0,2013-01-26 04:54:00